Погода в Советском

Россия / Республика Дагестан     41°43′36″N   48°19′30″E
темп.,
°C
ветер,
м/с
пор.,
м/с
влажн.,
%
обл.,
%
осадки,
мм/ч
давл.,
гПа
погр.,
м
25 июля, вс
вс2500:00+23з226787 0.0 101342
03:00+22сз117028 0.0 101313
06:00+23ю106898 0.0 1015115
09:00+26ссв335348 0.0 1015987
12:00+30св53389 0.0 10141688
15:00+29св64436 0.0 10141398
18:00+26св43535 0.0 1016842
21:00+22зюз11700 0.0 101712
26 июля, пн
пн2600:00+21з22700 0.0 101713
03:00+21зюз22720 0.0 101613
06:00+24з22590 0.0 1017104
09:00+29св22350 0.0 10161085
12:00+32св64280 0.0 10141572
15:00+32св43290 0.0 10131107
18:00+29св33340 0.0 1013469
21:00+23з22540 0.1 101416
27 июля, вт
вт2700:00+23сз33550 0.1 101527
03:00+22сз48650 0.1 1015192
06:00+24зсз265340 0.0 1014359
09:00+28с77375 0.1 10131294
12:00+30с1093747 0.1 10121584
15:00+29с993422 0.3 10121415
18:00+25с784692 0.1 1013841
21:00+20зсз3679100 0.6 1016181
28 июля, ср
ср2800:00+19сз3991100 4.8 1016490
03:00+18ссз3789100 7.8 1016415
06:00+17сз61074100 0.0 1017337
09:00+21зсз2655100 0.0 1017977
12:00+24с6745100 0.0 10161862
15:00+24с6646100 0.0 10161457
18:00+23ссз464687 0.0 10171188
21:00+19зюз33575 0.0 101824
29 июля, чт
чт2900:00+19зюз3355100 0.0 101738
03:00+19зюз2255100 0.0 101616
06:00+21з114960 0.0 101762
09:00+24св224176 0.0 10171437
12:00+27св53336 0.0 10162068
15:00+28всв643270 0.0 10141581
18:00+25в44441 0.0 1015772
21:00+20ююз22630 0.0 101615